[[{"header":{"parameterUnit":"m.s-1","parameterCategory":1,"la1":30.2991,"la2":30.254,"lo1":-89.0895,"lo2":-89.0444,"dy":0.0017,"dx":0.0017,"nx":28,"ny":28,"refTime":"2024-09-03T09:00:00:Z","depth":0,"parameterNumber":2,"parameterNumberName":"U-component_of_WINDS"},"data":[0,0,0,0,0,0,0,0,0,0,0,0,0,0,0,0,0,0,0,0,0,0,0,0,0,0,0,0,0,0,0,0,0,0,0,0,0,0,0,0,0,0,0,0,0,0,0,0,0,0,0,0,0,0,0,0,0,0,-6.7581,-6.7582,0,-6.7701,-6.7703,-6.7704,-6.7572,-6.7567,-6.7562,-6.7557,-6.7683,-6.7691,-6.7698,0,0,0,0,0,0,0,0,0,0,0,0,0,-6.7238,-6.7245,-6.7581,-6.7582,-6.7584,-6.7701,-6.7703,-6.7704,-6.7573,-6.7567,-6.7561,-6.7555,-6.768,-6.769,-6.7699,0,0,0,0,0,0,0,0,0,0,0,0,0,-6.7376,-6.7248,-6.7581,-6.7532,-6.7529,-6.7701,-6.7703,-6.7705,-6.7574,-6.7567,-6.7559,-6.7552,-6.7677,-6.7689,-6.7701,-6.7926,0,0,-6.7737,-6.7743,0,0,0,0,0,0,0,0,-6.7368,-6.7389,-6.7538,-6.7536,-6.7533,-6.7614,-6.7628,-6.7779,-6.7576,-6.7557,-6.7557,-6.7548,-6.7666,-6.7679,-6.7718,-6.7932,-6.7937,-6.7738,-6.7746,-6.7751,-6.7754,0,0,0,0,0,0,0,-6.7359,-6.7383,-6.7628,-6.754,-6.7537,-6.7505,-6.7516,-6.7656,-6.7653,-6.7558,-6.7549,-6.7565,-6.7663,-6.7706,-6.772,-6.7939,-6.7738,-6.7749,-6.7756,-6.7761,-6.8341,-6.8349,0,0,0,0,0,0,-6.7355,-6.7376,-6.7625,-6.7632,-6.743,-6.7517,-6.753,-6.7596,-6.7651,-6.7652,-6.7571,-6.7558,-6.769,-6.7706,-6.7724,-6.7988,-6.7751,-6.7762,-6.7769,-6.8333,-6.8343,-6.8352,0,0,0,0,0,0,-6.7348,-6.7378,-6.762,-6.7501,-6.753,-6.7531,-6.7606,-6.7602,-6.7645,-6.766,-6.7659,-6.7616,-6.7684,-6.7707,-6.7876,-6.7991,-6.7768,-6.7779,-6.8324,-6.8336,-6.8348,-6.8521,0,0,0,0,0,0,-6.7338,-6.7376,-6.7462,-6.7504,-6.7537,-6.777,-6.7613,-6.761,-6.7666,-6.765,-6.7702,-6.7703,-6.768,-6.7859,-6.7888,-6.8003,-6.7788,-6.8313,-6.8329,-6.8344,-6.8505,-6.8538,-6.8566,0,0,0,0,0,-6.7327,-6.7507,-6.7467,-6.7498,-6.7643,-6.7777,-6.7795,-6.7764,-6.7676,-6.7761,-6.7771,-6.7702,-6.7974,-6.7877,-6.7909,-6.803,-6.8306,-6.8325,-6.8343,-6.8491,-6.8531,-6.8565,0,0,0,0,0,0,-6.7479,-6.7512,-6.7467,-6.7667,-6.772,-6.7754,-6.7861,-6.7808,-6.7888,-6.787,-6.7829,-6.7842,-6.802,-6.8043,-6.7933,-6.8249,-6.8125,-6.8151,-6.8228,-6.8266,-6.8296,-6.8285,-6.7798,0,0,0,0,0,-6.7536,-6.7641,-6.7664,-6.7838,-6.7867,-6.786,-6.7917,-6.7889,-6.7942,-6.7964,-6.7986,-6.8042,-6.8139,-6.8204,-6.8295,-6.8509,-6.8517,-6.8608,-6.8638,-6.8663,-6.8685,-6.8796,-6.8836,-6.8413,-6.8412,-6.8412,0,0,-6.7654,-6.7685,-6.7754,-6.7869,-6.7907,-6.8017,-6.788,-6.8002,-6.8083,-6.7983,-6.8142,-6.8162,-6.822,-6.8412,-6.8497,-6.8436,-6.8804,-6.8687,-6.8706,-6.8714,-6.8819,-6.8859,-6.8895,-6.8425,-6.8423,-6.8421,0,0,-6.7924,-6.796,-6.8106,-6.8147,-6.8205,-6.82,-6.8235,-6.8278,-6.8286,-6.8446,-6.8372,-6.8469,-6.8639,-6.8682,-6.8727,-6.9014,-6.8952,-6.9046,-6.9203,-6.9312,-6.9345,-6.9375,-6.9474,-6.951,-6.9068,-6.9068,-6.9069,0,-6.8064,-6.8225,-6.8189,-6.8316,-6.8368,-6.8282,-6.843,-6.8472,-6.8558,-6.8595,-6.8526,-6.8735,-6.8769,-6.8968,-6.9038,-6.9078,-6.9116,-6.9037,-6.9343,-6.9372,-6.9399,-6.9493,-6.9531,-6.9079,-6.9078,-6.9077,-6.9076,0,-6.8392,-6.8506,-6.8617,-6.87,-6.8766,-6.8903,-6.8887,-6.8958,-6.8924,-6.8926,-6.9089,-6.9127,-6.9222,-6.9268,-6.9238,-6.9463,-6.9422,-6.935,-6.9223,-6.9451,-6.9538,-6.9574,-6.9094,-6.909,-6.9087,-6.9084,0,0,-6.8759,-6.8821,-6.8862,-6.8897,-6.8956,-6.9043,-6.9176,-6.9269,-6.9328,-6.9392,-6.95,-6.9646,-6.9578,-6.9629,-6.9603,-6.9699,-6.992,-6.9614,-6.9614,-6.9666,-7.0167,-7.0219,-7.0261,-6.9881,-6.9888,-6.9893,-7.0161,0,-6.9027,-6.9256,-6.9228,-6.9447,-6.955,-6.947,-6.9586,-6.9634,-6.964,-6.9728,-6.9735,-6.9837,-6.9742,-6.9771,-6.9864,-6.9874,-7.002,-6.9855,-6.998,-6.9985,-6.9963,-7.0307,-7.0362,-7.0613,-7.0195,-7.0201,-7.0205,0,-6.937,-6.9443,-6.9672,-6.9713,-6.9755,-6.9859,-6.994,-7.0027,-7.008,-7.0077,-7.0134,-7.0091,-7.0223,-7.0098,-7.028,-7.0168,-7.0218,-7.0232,-7.024,-7.0247,-7.0106,-7.032,-7.0692,-7.0728,-7.0259,-7.0255,-7.0251,0,-6.961,-6.9766,-6.9922,-6.9956,-7.0008,-7.0083,-7.0109,-7.0154,-7.0211,-7.0284,-7.0319,-7.0408,-7.0455,-7.0524,-7.0505,-7.0416,-7.069,-7.0563,-7.0689,-7.069,-7.0747,-7.0743,-7.1129,-7.0788,-7.0787,-7.0786,-7.0786,0,-6.9909,-7.0052,-7.003,-7.0126,-7.0283,-7.0249,-7.0406,-7.0421,-7.0463,-7.056,-7.0499,-7.0591,-7.0563,-7.0654,-7.0641,-7.0791,-7.0815,-7.0815,-7.0809,-7.0818,-7.0817,-7.0847,-7.0827,-7.0796,-7.0794,-7.0792,-7.079,0,-7.0202,-7.0193,-7.0358,-7.0394,-7.0406,-7.052,-7.055,-7.064,-7.0642,-7.0765,-7.0792,-7.0795,-7.0899,-7.0888,-7.1005,-7.0996,-7.1182,-7.1157,-7.1163,-7.1156,-7.128,-7.1267,-7.1695,-7.1748,-7.1377,-7.1381,-7.1384,0,-7.0391,-7.0498,-7.0545,-7.0605,-7.0636,-7.0734,-7.0791,-7.0763,-7.0826,-7.0894,-7.0975,-7.1074,-7.115,-7.1321,-7.1333,-7.1422,-7.1397,-7.1541,-7.1409,-7.1414,-7.1393,-7.1385,-7.1394,-7.1565,-7.1569,-7.1573,-7.1576,0,-7.0727,-7.0717,-7.0801,-7.0885,-7.0955,-7.1019,-7.1078,-7.1131,-7.1109,-7.1182,-7.1287,-7.1347,-7.1466,-7.1563,-7.1648,-7.1674,-7.1621,-7.1618,-7.165,-7.1658,-7.1655,-7.1654,-7.1228,-7.1607,-7.1603,-7.1601,-7.16,-7.1598,-7.097,-7.106,-7.1107,-7.1203,-7.1244,-7.13,-7.1384,-7.1396,-7.1483,-7.1576,-7.1556,-7.1674,-7.1723,-7.1831,-7.1866,-7.1958,-7.1905,-7.1954,-7.1966,-7.1977,-7.1989,-7.1645,-7.1974,-7.1973,-7.1972,-7.1971,-7.1971,0,-7.1298,-7.1324,-7.1413,-7.1496,-7.1571,-7.1516,-7.1577,-7.1643,-7.1747,-7.1798,-7.1875,-7.1995,-7.209,-7.211,-7.22,-7.2269,-7.2247,-7.2293,-7.2285,-7.2292,-7.2033,-7.1993,-7.231,-7.231,-7.231,-7.2309,-7.2309,-7.2309,-7.1477,-7.1626,-7.1622,-7.179,-7.1816,-7.1929,-7.1969,-7.202,-7.206,-7.2196,-7.2274,-7.2286,-7.2324,-7.2417,-7.2501,-7.2504,-7.2538,-7.2594,-7.2587,-7.2345,-7.231,-7.2278,-7.224,-7.2603,-7.2603,-7.2837,-7.2839,-7.2841]},{"header":{"parameterUnit":"m.s-1","parameterCategory":1,"la1":30.2991,"la2":30.254,"lo1":-89.0895,"lo2":-89.0444,"dy":0.0017,"dx":0.0017,"nx":28,"ny":28,"refTime":"2024-09-03T09:00:00:Z","depth":0,"parameterNumber":3,"parameterNumberName":"V-component_of_WINDS"},"data":[0,0,0,0,0,0,0,0,0,0,0,0,0,0,0,0,0,0,0,0,0,0,0,0,0,0,0,0,0,0,0,0,0,0,0,0,0,0,0,0,0,0,0,0,0,0,0,0,0,0,0,0,0,0,0,0,0,0,0.4777,0.4777,0,0.4748,0.4747,0.4747,0.4628,0.4625,0.4622,0.462,0.4594,0.4595,0.4597,0,0,0,0,0,0,0,0,0,0,0,0,0,0.4735,0.4736,0.4777,0.4777,0.4776,0.4748,0.4747,0.4747,0.4628,0.4625,0.4622,0.4618,0.4593,0.4595,0.4597,0,0,0,0,0,0,0,0,0,0,0,0,0,0.4734,0.4737,0.4777,0.4714,0.4707,0.4748,0.4747,0.4747,0.4629,0.4625,0.4621,0.4617,0.4592,0.4595,0.4598,0.4698,0,0,0.4606,0.4608,0,0,0,0,0,0,0,0,0.4734,0.4736,0.4723,0.4718,0.4711,0.4687,0.4723,0.4731,0.463,0.4659,0.462,0.4615,0.4628,0.4628,0.4632,0.4697,0.4696,0.4607,0.4608,0.461,0.461,0,0,0,0,0,0,0,0.4735,0.4737,0.4765,0.4723,0.4716,0.4688,0.4683,0.4724,0.4667,0.4656,0.4647,0.4645,0.4624,0.4629,0.463,0.4696,0.4607,0.4609,0.4611,0.4612,0.4845,0.4849,0,0,0,0,0,0,0.4743,0.4737,0.4766,0.4765,0.4713,0.4692,0.4687,0.4699,0.4667,0.4658,0.4649,0.464,0.4626,0.4627,0.4629,0.4746,0.461,0.4612,0.4614,0.484,0.4846,0.485,0,0,0,0,0,0,0.4743,0.4747,0.4768,0.4749,0.4749,0.4697,0.4712,0.4701,0.4705,0.4661,0.4651,0.4664,0.4623,0.4625,0.4682,0.4744,0.4614,0.4616,0.4835,0.4842,0.4848,0.4981,0,0,0,0,0,0,0.4742,0.4747,0.4784,0.475,0.4751,0.4821,0.4716,0.4703,0.471,0.4698,0.4673,0.4664,0.462,0.4679,0.4685,0.4745,0.4618,0.4829,0.4838,0.4846,0.4971,0.4991,0.5009,0,0,0,0,0,0.4741,0.4823,0.4786,0.479,0.4795,0.4824,0.4824,0.4771,0.4716,0.4753,0.4725,0.4665,0.4736,0.4686,0.4692,0.4754,0.4825,0.4835,0.4845,0.4962,0.4987,0.5009,0,0,0,0,0,0,0.4866,0.4817,0.4776,0.4849,0.4842,0.4804,0.4849,0.4799,0.4807,0.4796,0.473,0.4725,0.4793,0.4778,0.4724,0.485,0.477,0.4782,0.4857,0.4881,0.4899,0.4902,0.4621,0,0,0,0,0,0.4902,0.4928,0.4885,0.4954,0.4952,0.4902,0.4912,0.4871,0.4861,0.4858,0.4834,0.4828,0.4848,0.4863,0.488,0.4968,0.4962,0.5014,0.5033,0.5048,0.506,0.5108,0.5131,0.4884,0.4883,0.4883,0,0,0.4977,0.4953,0.4974,0.4978,0.4967,0.4998,0.49,0.4936,0.4959,0.4864,0.4917,0.4899,0.4888,0.4962,0.4993,0.4952,0.5127,0.5061,0.5074,0.5077,0.5121,0.5144,0.5165,0.489,0.4889,0.4888,0,0,0.5129,0.5113,0.5169,0.5161,0.5146,0.5112,0.5126,0.5096,0.5081,0.5132,0.5062,0.5089,0.5126,0.5121,0.5124,0.5276,0.5223,0.5284,0.5384,0.5431,0.5451,0.5468,0.5525,0.5546,0.5295,0.5295,0.5296,0,0.5224,0.5266,0.5205,0.5247,0.5252,0.5166,0.5224,0.5219,0.5211,0.5218,0.5171,0.5216,0.5203,0.5275,0.5313,0.5317,0.5333,0.5287,0.5453,0.5469,0.5484,0.5538,0.5559,0.5303,0.5302,0.5301,0.5301,0,0.5386,0.5416,0.5464,0.5458,0.5468,0.5517,0.5466,0.5484,0.5442,0.5414,0.547,0.545,0.5462,0.5476,0.5436,0.5544,0.552,0.5464,0.5383,0.5517,0.5566,0.5586,0.5314,0.5311,0.5309,0.5307,0,0,0.5616,0.5576,0.5595,0.5592,0.5569,0.5593,0.5639,0.565,0.5668,0.5665,0.5705,0.5738,0.5687,0.569,0.5649,0.5691,0.5816,0.563,0.5629,0.5668,0.5937,0.598,0.6005,0.578,0.5783,0.5786,0.5939,0,0.5763,0.5839,0.5787,0.5873,0.5902,0.5822,0.5863,0.5855,0.583,0.5852,0.5825,0.5851,0.578,0.5782,0.5819,0.5793,0.587,0.5781,0.5818,0.582,0.5826,0.603,0.6076,0.622,0.5957,0.596,0.5963,0,0.5944,0.595,0.6039,0.6012,0.6023,0.606,0.6067,0.6089,0.6079,0.6058,0.6062,0.6011,0.6057,0.5976,0.604,0.5981,0.5993,0.5983,0.5987,0.599,0.5901,0.6041,0.6265,0.6288,0.5992,0.599,0.5988,0,0.6107,0.6136,0.6194,0.6193,0.6163,0.6192,0.6181,0.6167,0.6177,0.6184,0.6191,0.6203,0.621,0.6222,0.6176,0.6121,0.6247,0.6162,0.6234,0.6235,0.6265,0.6264,0.6497,0.627,0.6269,0.6269,0.6269,0,0.6278,0.6336,0.6266,0.6302,0.6366,0.6305,0.637,0.6351,0.634,0.6372,0.6303,0.6335,0.6271,0.6298,0.6262,0.6322,0.6325,0.6312,0.6302,0.6319,0.6321,0.6328,0.6317,0.6275,0.6273,0.6272,0.6271,0,0.647,0.6426,0.6483,0.645,0.6444,0.6492,0.6465,0.6498,0.6468,0.651,0.6516,0.6471,0.6498,0.6453,0.6475,0.6452,0.6536,0.6509,0.6539,0.6532,0.6608,0.6602,0.6854,0.6885,0.6637,0.6639,0.6641,0,0.6583,0.6626,0.6598,0.6614,0.6607,0.6633,0.6644,0.6587,0.6601,0.6594,0.6628,0.665,0.6664,0.6711,0.6682,0.6699,0.6674,0.6761,0.6676,0.6693,0.6678,0.6677,0.6682,0.6779,0.6782,0.6785,0.6787,0,0.6789,0.6765,0.6782,0.6793,0.6808,0.6813,0.6814,0.6831,0.6771,0.6791,0.6817,0.6829,0.6851,0.6874,0.6884,0.6875,0.6823,0.6813,0.6831,0.685,0.6867,0.6861,0.6589,0.6808,0.6806,0.6804,0.6803,0.6802,0.6947,0.6982,0.6968,0.6991,0.6985,0.6988,0.7018,0.6992,0.7013,0.7026,0.6991,0.7027,0.7018,0.7026,0.7022,0.7051,0.7013,0.7038,0.7045,0.7053,0.7066,0.6861,0.7052,0.7051,0.7051,0.705,0.705,0,0.7151,0.7139,0.716,0.7163,0.7181,0.7128,0.7127,0.7146,0.7178,0.7173,0.7189,0.7221,0.7243,0.7216,0.7233,0.7262,0.7239,0.7269,0.7267,0.7267,0.7097,0.7081,0.7288,0.7288,0.7288,0.7288,0.7287,0.7287,0.726,0.7318,0.7293,0.7348,0.7335,0.7369,0.7373,0.7376,0.7372,0.7411,0.7429,0.741,0.7397,0.7414,0.7433,0.7424,0.7435,0.7475,0.7458,0.7301,0.7278,0.7256,0.724,0.7477,0.7477,0.7625,0.7626,0.7627]}]]